Location: Hurstbourne Priors
(51.2000°N, 1.3667°W)
Time: 18:44:02
(UTC+00:00)

Transit 4A - Pass Details

Date: 28 April 2021
Orbit: 870 x 974 km, 66.8° (Epoch: 09 May)

Event Time Altitude Azimuth Distance (km) Brightness Sun altitude
Exits shadow 20:58:11 - 187° (S) 3,644 10.6 -13.1°
Rises 20:58:16 0° 186° (S) 3,618 10.6 -13.1°
Reaches altitude 10° 21:01:00 10° 179° (S) 2,662 9.9 -13.4°
Maximum altitude 21:06:36 37° 114° (ESE) 1,413 8.4 -14.0°
Drops below altitude 10° 21:12:05 10° 49° (NE) 2,612 10.2 -14.6°
Sets 21:14:44 0° 42° (NE) 3,541 11.0 -14.9°
